164P/Christensen (2018)

Japanese version
Home page
Updated on March 3, 2018

---------------------------------------------------------------------

* Profile

* Orbital Elements

Epoch 2018 June 11.0 TT = JDT 2458280.5
T 2018 May 31.40964 TT                                  MPCW
q   1.6852535            (2000.0)            P               Q
n   0.14067455     Peri.  325.93121     +0.56205800     -0.77835036
a   3.6614999      Node    88.30568     +0.80745375     +0.44309069
e   0.5397368      Incl.   16.25274     +0.17919053     +0.44479361
P   7.01
From 903 observations 1998 Jan. 24-2017 Aug. 14, mean residual 0".7.
     Nongravitational parameters A1 = -0.15, A2 = +0.0105.

* Magnitudes Graph

        m1 = 13.0 + 5 log d + 10.0 log r(t - 150)

---------------------------------------------------------------------

The orbital elements are published on M.P.E.C. 2017-T14.
The magnitudes graphs are made with Comet for Windows.

---------------------------------------------------------------------

Copyright(C) Seiichi Yoshida (comet@aerith.net). All rights reserved.